Location: Kitchener
(43.4500°N, 80.5000°W)
Time: 13:15:02
(UTC-05:00)

ISS - Visible Passes

Search period start: 22 November 2017 00:00
Search period end: 02 December 2017 00:00
Orbit: 402 x 407 km, 51.6° (Epoch: 22 November)

Date Brightness Start Highest point End Pass type
(mag) Time Alt. Az. Time Alt. Az. Time Alt. Az.
25 Nov -0.6 19:25:38 10° SW 19:25:38 10° SW 19:25:38 10° SW visible
26 Nov -2.1 18:33:50 10° SSW 18:35:48 23° SSE 18:35:48 23° SSE visible
27 Nov -1.6 17:42:39 10° SSE 17:44:26 14° SE 17:45:52 11° ESE visible
27 Nov -1.4 19:17:14 10° WSW 19:18:33 22° WSW 19:18:33 22° WSW visible
28 Nov -3.7 18:24:58 10° SW 18:28:10 58° SE 18:28:31 54° ESE visible
29 Nov -2.7 17:32:59 10° SSW 17:35:54 31° SE 17:38:24 13° ENE visible
29 Nov -1.8 19:09:12 10° W 19:11:04 27° WNW 19:11:04 27° WNW visible
30 Nov -3.6 18:16:36 10° WSW 18:19:52 65° NNW 18:20:53 39° NE visible
01 Dec -3.8 17:24:12 10° SW 17:27:28 72° SE 17:30:38 11° ENE visible
01 Dec -1.7 19:01:21 10° WNW 19:03:17 23° NW 19:03:17 23° NW visible
